Flag for Denmark Weather past 2 weeks in Horsens, Denmark

Now
66 °F

Passing clouds.


Feels Like: 66 °F
Forecast: 55 / 69 °F
Wind: 15 mph from East

Location: Billund Lufthavn

Current Time: Sep 16, 2014 at 2:17:37 PM

Latest Report: Sep 16, 2014 at 1:50 PM


Visibility: N/A

Pressure: 30.18 "Hg

Humidity: 73%

Dew point: 57 °F

Location of HorsensLocation

Historic Weather in Horsens — Graph

°F

Horsens temperature yesterday

Maximum temperature yesterday: 64 °F (at 3:50 PM)
Minimum temperature yesterday: 59 °F (at 2:20 AM)
Average temperature yesterday: 61 °F

Past Weeks' High & Low Weather Summary

 TemperatureHumidityPressure
High73 °F (Sep 6, 1:20 PM)100% (Sep 2, 1:50 AM)30.42 "Hg (Sep 2, 1:50 AM)
Low46 °F (Sep 3, 5:20 AM)40% (Sep 2, 3:20 PM)29.86 "Hg (Sep 6, 3:50 PM)
Average59 °F84%30.14 "Hg
* Reported Sep 1 1:20 PM — Sep 16 1:20 PM, Horsens, Weather by CustomWeather, © 2014

Note: Actual official high and low records may vary slightly from our data, if they occured in-between our weather recording intervals... More about our weather records

Advertising

Horsens weather history for previous 24 hours

 ConditionsComfort  
Time TempWeatherWind HumidityBarometerVisibility
1:20 PM
Sep 16
64 °FPassing clouds.16 mph78%30.18 "HgN/A
12:50 PM66 °FPassing clouds.14 mph73%30.18 "HgN/A
12:20 PM64 °FPassing clouds.17 mph78%30.21 "HgN/A
11:50 AM64 °FPassing clouds.15 mph78%30.21 "HgN/A
11:20 AM63 °FPassing clouds.14 mph83%30.21 "HgN/A
10:50 AM63 °FScattered clouds.15 mph83%30.21 "HgN/A
10:20 AM61 °FPartly sunny.17 mph88%30.21 "HgN/A
9:50 AM59 °FPartly sunny.16 mph88%30.21 "HgN/A
9:20 AM59 °FPartly sunny.16 mph88%30.21 "HgN/A
8:50 AM59 °FPartly sunny.13 mph88%30.21 "HgN/A
8:20 AM57 °FPartly sunny.13 mph94%30.18 "HgN/A
7:50 AM57 °FPassing clouds.13 mph94%30.18 "HgN/A
7:20 AM57 °FPassing clouds.13 mph94%30.18 "HgN/A
6:50 AM55 °FPassing clouds.10 mph100%30.18 "HgN/A
6:20 AM57 °FPassing clouds.12 mph94%30.18 "HgN/A
5:50 AM57 °FPassing clouds.10 mph94%30.18 "HgN/A
5:20 AM57 °FPassing clouds.12 mph94%30.18 "HgN/A
4:50 AM57 °FPassing clouds.10 mph94%30.18 "HgN/A
4:20 AM57 °FPassing clouds.13 mph94%30.18 "HgN/A
3:20 AM57 °FPassing clouds.14 mph94%30.21 "HgN/A
2:50 AM57 °FPassing clouds.13 mph94%30.21 "HgN/A
2:20 AM59 °FPassing clouds.14 mph88%30.21 "HgN/A
1:50 AM59 °FPassing clouds.13 mph88%30.21 "HgN/A
1:20 AM59 °FPassing clouds.15 mph94%30.21 "HgN/A
12:50 AM59 °FPassing clouds.15 mph94%30.21 "HgN/A
12:20 AM59 °FPassing clouds.13 mph94%30.21 "HgN/A
11:50 PM
Sep 15
59 °FPassing clouds.13 mph88%30.21 "HgN/A
11:20 PM59 °FPassing clouds.12 mph88%30.21 "HgN/A
10:50 PM59 °FClear.12 mph88%30.21 "Hg10 mi
10:20 PM59 °FPassing clouds.13 mph94%30.21 "HgN/A
9:50 PM61 °FClear.13 mph88%30.21 "Hg10 mi
9:20 PM61 °FClear.13 mph88%30.21 "Hg10 mi
8:50 PM61 °FClear.13 mph88%30.21 "Hg10 mi
8:20 PM61 °FSunny.14 mph94%30.18 "Hg10 mi
7:50 PM63 °FSunny.14 mph88%30.18 "Hg10 mi
7:20 PM63 °FSunny.13 mph88%30.18 "Hg10 mi
6:50 PM63 °FPassing clouds.14 mph88%30.18 "HgN/A
6:20 PM64 °FScattered clouds.15 mph83%30.18 "HgN/A
5:50 PM64 °FPartly sunny.16 mph83%30.18 "HgN/A
5:20 PM64 °FPartly sunny.16 mph83%30.18 "HgN/A
4:50 PM64 °FPartly sunny.16 mph83%30.21 "HgN/A
4:20 PM64 °FPartly sunny.18 mph83%30.21 "HgN/A
3:50 PM64 °FPartly sunny.15 mph83%30.21 "HgN/A
3:20 PM63 °FPartly sunny.15 mph88%30.21 "HgN/A
2:50 PM63 °FPartly sunny.15 mph88%30.21 "HgN/A
2:20 PM63 °FPartly sunny.15 mph88%30.21 "HgN/A
Weather by CustomWeather, © 2014

See weather overviewHow to use our weather pages